Wind_Speed
3 4 3 4 4 4 3 3 3 3 4 4 4 4 4 5 5 5 5 6 7 8 8 8 8 8 7 7 7 6 6 5 5 5 6 6 6 6 7 7 7 7 8
3 3 4 3 3 3 3 3 3 3 2 2 3 3 3 4 4 4 5 5 6 7 7 7 8 7 7 7 6 6 6 5 5 5 5 5 5 6 6 7 7 7 7
3 3 4 3 3 3 3 2 2 2 2 1 1 1 1 2 3 3 4 5 5 6 6 7 7 6 6 7 6 6 6 6 6 5 5 5 5 4 5 6 6 6 6
3 3 3 4 4 3 3 2 2 3 2 1 1 1 0 0 1 2 3 4 4 5 5 6 5 5 5 5 6 6 6 6 6 5 5 4 3 3 3 5 5 5 5
4 3 3 4 4 4 4 3 3 3 3 2 2 2 1 1 2 2 3 3 3 4 4 4 4 4 4 4 5 5 5 5 5 5 5 4 3 3 3 3 4 4 4
4 4 4 4 5 5 4 4 4 4 4 3 3 3 3 2 3 3 3 3 3 3 4 4 3 3 3 3 4 4 4 5 5 5 5 4 4 4 3 3 4 4 5
4 4 4 5 5 5 5 4 4 4 4 4 3 4 3 3 3 3 2 3 3 3 3 3 2 2 3 3 3 3 4 4 4 5 5 4 4 4 4 4 4 5 5
4 4 4 4 5 5 5 5 4 5 5 5 4 4 4 4 3 3 2 3 4 4 4 3 2 2 2 2 2 2 3 4 4 4 4 3 3 4 4 4 4 5 7
4 4 4 4 5 5 6 5 5 5 6 5 5 4 4 4 3 4 3 3 4 3 3 3 2 2 2 2 2 2 3 3 4 4 4 4 4 4 4 5 5 5 6
3 4 4 4 4 5 5 5 5 6 6 5 5 5 5 4 4 4 4 3 3 3 2 2 1 2 1 1 1 2 3 4 4 4 4 5 4 4 5 5 5 6 7
3 4 4 4 5 5 6 6 6 6 6 6 5 5 5 5 4 3 4 3 3 3 2 2 1 1 0 1 2 2 3 3 4 4 4 5 5 5 5 6 6 6 7
3 3 4 4 5 5 6 6 6 6 6 5 5 5 4 4 4 4 4 4 3 3 2 2 1 0 1 2 2 2 2 2 3 3 4 5 5 5 5 6 7 7 7
2 3 3 4 4 5 5 5 6 6 5 5 5 4 4 3 4 4 4 3 3 3 2 2 2 1 2 3 3 2 2 2 2 3 4 4 5 5 6 6 7 7 8
2 2 3 3 4 4 5 5 5 5 5 4 4 3 3 3 3 3 3 3 2 2 2 2 2 2 3 3 3 2 2 2 2 2 3 4 5 5 6 7 8 8 9
2 2 3 3 4 4 4 4 4 4 4 3 3 3 3 3 3 3 3 2 2 2 2 2 2 2 2 3 3 3 3 3 3 3 3 4 5 6 7 8 9 10 11
3 2 3 3 3 3 3 3 3 3 3 3 2 2 2 2 2 2 2 2 2 2 2 2 3 2 3 4 4 4 3 3 3 4 5 5 6 7 7 8 9 10 11
5 3 3 2 2 2 2 2 3 3 3 2 2 1 1 1 1 1 1 1 1 1 2 3 3 4 4 4 4 4 4 4 5 5 5 6 7 7 8 9 10 11 12
7 5 4 3 2 1 1 0 1 1 2 2 2 2 1 1 1 1 1 1 1 2 2 3 4 5 5 5 6 6 6 6 6 6 7 8 9 9 10 10 11 12 13
8 7 6 5 4 3 2 2 2 2 2 3 3 3 3 3 2 2 2 2 3 3 4 4 5 6 6 7 7 7 7 8 8 9 9 10 11 12 13 13 13 14 15
10 9 8 7 6 5 5 4 4 4 4 4 4 3 4 4 4 3 4 4 4 5 5 6 6 6 7 8 8 9 9 10 11 11 12 13 13 14 15 16 16 17 18
12 11 10 9 8 7 7 7 7 6 6 5 5 5 5 6 5 5 6 6 6 7 8 8 8 9 9 10 11 11 12 12 13 14 15 15 16 17 18 19 19 20 20
13 12 11 10 9 8 8 9 9 9 8 8 8 7 7 7 7 8 8 9 9 9 10 10 11 11 12 13 13 14 14 15 16 17 17 18 19 20 20 21 22 23 23
13 12 12 12 11 10 10 10 10 10 10 10 9 9 9 9 10 10 10 11 11 12 12 13 13 14 15 15 16 16 17 17 18 19 20 21 22 22 23 24 25 25 26
13 13 13 13 13 12 12 12 11 11 12 11 11 11 11 12 12 12 12 12 13 14 15 16 16 17 17 18 19 19 19 20 21 21 22 23 24 25 26 27 28 29 29
14 13 13 13 13 14 13 13 13 13 14 14 14 13 14 13 14 14 15 16 16 17 18 18 19 20 20 21 21 22 23 23 24 24 25 26 27 28 29 30 31 32 32
15 15 14 14 14 14 14 14 14 14 14 14 15 15 16 16 17 17 17 18 19 20 20 21 22 23 23 24 24 24 25 26 26 27 28 29 30 30 31 32 33 34 35
Wind_Direction
340 341 339 338 333 334 329 323 317 299 285 275 272 266 261 254 250 239 229 228 228 227 226 223 223 226 230 234 238 240 240 243 251 259 264 267 263 260 253 248 247 249 247
346 353 353 347 352 351 350 351 345 331 322 296 285 268 261 252 247 240 228 227 225 225 224 219 219 224 229 232 233 232 238 244 251 256 261 263 266 265 256 249 247 250 250
0 3 6 13 19 15 4 358 2 359 357 352 334 292 279 247 229 227 220 217 219 221 216 212 214 221 230 233 232 233 237 240 249 257 262 262 264 266 256 245 245 248 246
15 21 29 33 32 27 22 21 29 27 29 51 51 47 30 145 190 183 183 194 203 204 203 206 212 220 226 230 230 232 239 243 248 258 262 263 269 276 260 246 245 243 247
39 41 36 35 31 35 39 42 46 46 62 84 92 96 109 120 140 151 163 173 186 185 186 193 201 215 224 225 231 229 239 247 252 262 261 261 265 267 263 259 243 239 241
51 47 39 35 34 40 44 52 55 55 65 84 93 95 98 101 132 141 161 167 176 177 171 176 190 208 222 221 230 234 246 250 252 262 259 262 267 267 261 259 246 242 228
53 43 39 40 42 46 49 59 65 68 69 80 89 94 97 101 120 128 136 160 170 167 169 171 179 198 211 220 241 242 250 253 255 263 257 255 259 261 259 250 241 239 228
54 45 48 48 51 55 59 64 72 77 83 84 89 90 87 84 97 103 106 141 158 156 157 157 174 177 184 198 216 240 247 250 256 260 261 264 263 259 253 253 248 246 249
52 53 57 57 56 56 60 67 76 82 88 87 85 84 83 85 87 92 103 119 126 142 152 150 170 170 176 193 221 250 252 252 263 269 271 267 258 254 251 247 251 249 247
55 52 59 64 64 63 66 74 82 90 87 88 87 85 88 86 81 82 89 107 119 122 129 129 157 160 181 222 258 279 271 261 264 268 266 263 261 257 251 251 254 251 250
64 55 58 65 69 71 74 79 85 89 86 87 86 86 86 84 84 87 86 101 114 111 112 107 112 114 41 316 299 296 278 266 271 269 261 257 260 257 254 254 258 258 255
77 65 62 68 72 76 80 80 83 85 84 84 86 85 84 84 89 91 90 97 107 105 99 87 66 21 359 349 332 315 303 286 282 278 271 263 263 267 264 260 260 261 258
94 76 73 73 72 78 83 85 81 81 83 81 81 79 81 83 85 88 90 95 99 94 93 71 28 1 4 9 7 360 358 320 301 287 280 277 277 277 274 271 270 267 265
124 93 90 84 80 83 88 86 83 81 81 80 77 73 72 75 78 82 84 84 81 74 75 62 35 11 2 356 6 360 357 350 342 322 301 290 291 290 285 279 277 274 274
161 133 105 97 93 89 85 84 80 79 82 79 75 73 71 69 69 75 77 78 67 54 48 35 14 5 0 356 1 349 329 334 335 332 326 302 299 296 294 293 290 286 282
180 162 137 123 108 94 86 79 72 70 72 75 73 70 69 68 67 66 64 60 53 45 36 24 11 357 351 348 349 341 329 311 304 316 314 313 309 303 301 297 292 292 289
189 183 173 155 134 116 94 75 60 58 60 55 52 31 26 53 57 61 39 30 31 24 7 355 347 346 342 341 340 341 333 318 306 301 305 305 307 310 315 309 300 299 295
206 207 205 203 195 182 158 110 22 23 16 7 353 337 338 323 326 329 334 326 325 329 329 328 324 322 321 315 314 313 314 313 311 302 301 303 302 302 307 308 307 305 303
215 217 218 222 232 238 244 264 287 308 323 326 321 310 303 291 290 309 314 314 312 313 317 316 313 314 317 313 309 306 307 306 305 304 301 299 299 300 301 301 302 303 302
219 221 225 232 239 248 257 264 272 280 291 303 301 294 291 290 289 289 292 292 293 299 304 305 305 308 312 311 309 306 305 305 304 305 305 302 300 299 300 301 301 300 299
223 225 229 235 241 248 258 265 267 274 280 289 292 287 280 283 285 288 290 290 291 293 298 301 301 304 304 303 304 303 301 300 301 301 301 302 302 302 302 301 301 300 298
229 230 232 238 243 251 260 267 267 271 276 280 283 283 279 276 279 284 287 288 289 291 294 298 300 301 302 302 301 300 300 299 298 298 298 297 298 299 300 300 300 299 299
232 235 238 242 249 255 261 266 268 269 274 278 279 279 279 276 277 281 284 285 287 288 289 293 296 298 300 300 299 298 297 297 297 296 297 297 297 297 298 299 300 300 299
235 238 241 245 251 256 261 263 264 268 270 274 277 279 280 279 280 282 283 284 286 288 290 291 293 295 297 298 297 296 295 295 295 294 295 296 297 298 298 298 298 299 299
235 239 243 248 252 256 259 262 264 267 269 270 272 275 275 277 278 281 283 284 284 285 286 289 290 292 294 295 295 295 294 294 294 295 295 296 295 296 296 297 297 297 297
236 240 245 249 252 256 261 263 265 268 270 272 274 276 276 276 278 280 282 285 286 286 287 288 289 290 291 292 293 294 294 294 294 294 295 295 296 295 296 297 297 296 297
Height
5876 5875 5874 5872 5871 5870 5869 5868 5867 5866 5866 5865 5865 5865 5864 5864 5864 5865 5865 5866 5867 5868 5869 5870 5871 5872 5873 5874 5875 5875 5876 5876 5876 5876 5875 5875 5874 5873 5873 5873 5873 5873 5873
5875 5874 5873 5872 5871 5869 5868 5867 5866 5866 5865 5864 5864 5864 5863 5863 5863 5864 5864 5865 5866 5867 5868 5869 5870 5871 5872 5873 5873 5874 5875 5875 5875 5875 5874 5873 5872 5871 5871 5871 5872 5872 5872
5874 5873 5872 5871 5870 5869 5868 5867 5866 5865 5864 5864 5863 5863 5863 5863 5863 5863 5864 5864 5865 5866 5867 5868 5869 5870 5871 5872 5872 5873 5873 5874 5874 5873 5873 5872 5870 5869 5868 5869 5870 5871 5871
5874 5873 5872 5871 5870 5868 5867 5866 5866 5865 5864 5864 5863 5863 5863 5863 5863 5863 5863 5864 5865 5865 5866 5867 5868 5869 5870 5871 5871 5872 5872 5872 5872 5872 5872 5871 5870 5868 5868 5868 5869 5870 5870
5874 5873 5872 5871 5869 5868 5867 5866 5865 5865 5864 5864 5864 5864 5863 5863 5863 5863 5863 5864 5865 5865 5866 5867 5868 5868 5869 5870 5870 5870 5871 5871 5871 5871 5871 5870 5869 5869 5868 5868 5868 5869 5869
5874 5873 5872 5871 5869 5868 5867 5866 5866 5865 5864 5864 5864 5864 5864 5864 5864 5864 5864 5864 5865 5865 5866 5867 5868 5868 5868 5869 5869 5869 5870 5870 5870 5870 5870 5869 5869 5868 5868 5868 5868 5868 5868
5874 5873 5872 5871 5870 5869 5868 5867 5866 5865 5865 5865 5865 5865 5864 5864 5864 5864 5864 5864 5865 5865 5866 5867 5868 5868 5868 5868 5868 5868 5869 5869 5869 5869 5868 5868 5868 5868 5867 5867 5868 5868 5867
5874 5873 5872 5871 5870 5869 5868 5867 5867 5866 5865 5865 5865 5865 5865 5865 5865 5865 5865 5865 5865 5866 5866 5867 5867 5868 5868 5868 5868 5868 5868 5868 5867 5867 5867 5867 5866 5866 5866 5866 5867 5867 5867
5874 5873 5872 5871 5870 5870 5869 5868 5867 5867 5866 5866 5866 5866 5866 5866 5866 5866 5865 5865 5866 5866 5866 5867 5867 5867 5867 5867 5867 5867 5867 5867 5866 5866 5866 5866 5865 5865 5865 5865 5866 5866 5865
5874 5873 5872 5872 5871 5870 5869 5868 5868 5868 5867 5867 5867 5867 5867 5867 5867 5867 5867 5867 5867 5867 5867 5867 5867 5867 5867 5867 5866 5866 5865 5865 5865 5865 5865 5864 5864 5864 5864 5864 5864 5864 5864
5874 5874 5873 5872 5871 5870 5870 5869 5869 5868 5868 5868 5868 5868 5868 5868 5868 5868 5867 5867 5867 5867 5867 5867 5867 5867 5866 5866 5865 5864 5864 5864 5864 5863 5863 5863 5863 5863 5863 5863 5863 5863 5863
5875 5874 5874 5873 5872 5871 5871 5870 5870 5869 5869 5869 5869 5869 5869 5869 5868 5868 5868 5868 5868 5868 5868 5867 5867 5866 5866 5865 5864 5863 5862 5862 5862 5862 5862 5862 5862 5862 5861 5861 5861 5861 5861
5875 5875 5874 5873 5873 5872 5872 5871 5871 5870 5870 5870 5870 5870 5869 5869 5869 5869 5869 5869 5868 5868 5868 5868 5867 5866 5866 5865 5863 5862 5862 5861 5860 5860 5860 5860 5860 5860 5860 5859 5859 5859 5859
5875 5875 5874 5874 5873 5873 5872 5872 5872 5871 5871 5871 5871 5870 5870 5870 5869 5869 5869 5869 5869 5869 5868 5868 5867 5866 5866 5864 5863 5862 5861 5860 5860 5859 5859 5859 5859 5859 5858 5857 5857 5857 5857
5875 5875 5875 5874 5874 5874 5873 5873 5873 5872 5872 5871 5871 5871 5871 5870 5870 5870 5870 5869 5870 5869 5868 5868 5867 5867 5865 5864 5863 5862 5861 5860 5859 5859 5859 5858 5857 5857 5857 5855 5855 5854 5854
5874 5875 5875 5874 5874 5874 5874 5874 5873 5872 5872 5872 5871 5871 5871 5871 5870 5870 5870 5869 5869 5869 5869 5868 5867 5867 5866 5864 5863 5862 5861 5860 5859 5859 5858 5857 5856 5856 5855 5853 5852 5852 5851
5874 5874 5874 5875 5874 5874 5874 5874 5873 5873 5872 5872 5871 5871 5871 5870 5870 5870 5870 5869 5869 5869 5869 5868 5867 5867 5866 5864 5863 5862 5861 5860 5859 5858 5857 5856 5855 5854 5853 5851 5850 5849 5848
5873 5874 5874 5874 5874 5874 5874 5874 5873 5873 5872 5872 5871 5870 5870 5870 5870 5870 5869 5869 5869 5868 5868 5868 5867 5866 5865 5864 5863 5862 5860 5859 5858 5857 5856 5855 5854 5852 5851 5849 5848 5846 5845
5872 5872 5873 5873 5874 5874 5873 5873 5873 5873 5872 5871 5870 5870 5869 5869 5869 5869 5869 5868 5868 5868 5867 5867 5866 5865 5864 5863 5862 5861 5859 5858 5857 5856 5854 5853 5852 5850 5849 5847 5845 5844 5842
5870 5871 5871 5872 5872 5873 5873 5872 5872 5872 5871 5870 5870 5869 5868 5868 5868 5868 5868 5867 5867 5867 5866 5866 5865 5864 5863 5862 5860 5859 5858 5857 5855 5854 5852 5851 5849 5848 5846 5844 5842 5840 5838
5868 5869 5869 5870 5871 5871 5871 5871 5871 5870 5870 5869 5868 5868 5867 5867 5867 5867 5866 5866 5866 5865 5865 5864 5863 5862 5861 5860 5858 5857 5856 5854 5852 5851 5849 5848 5846 5844 5842 5840 5838 5836 5834
5865 5866 5867 5868 5868 5869 5869 5869 5869 5868 5868 5867 5867 5866 5865 5865 5865 5865 5864 5864 5864 5863 5863 5862 5861 5860 5858 5857 5856 5854 5853 5851 5849 5848 5846 5844 5842 5840 5838 5836 5834 5832 5829
5863 5864 5864 5865 5866 5866 5866 5866 5866 5866 5866 5865 5864 5864 5863 5863 5862 5862 5862 5862 5861 5860 5860 5859 5858 5857 5856 5854 5852 5851 5849 5847 5845 5844 5842 5839 5837 5835 5833 5831 5829 5826 5824
5859 5861 5861 5862 5863 5863 5863 5864 5863 5863 5863 5862 5862 5861 5861 5860 5860 5859 5859 5859 5858 5857 5856 5855 5854 5853 5852 5850 5848 5846 5844 5842 5841 5839 5837 5834 5832 5829 5827 5824 5822 5819 5817
5856 5857 5858 5859 5859 5860 5860 5860 5860 5860 5860 5859 5859 5858 5858 5857 5857 5856 5856 5855 5854 5853 5852 5851 5850 5848 5847 5845 5843 5841 5839 5837 5835 5833 5830 5828 5825 5823 5820 5817 5814 5811 5808
5853 5854 5854 5855 5856 5856 5857 5857 5857 5856 5856 5856 5855 5855 5854 5853 5853 5852 5851 5850 5849 5848 5847 5846 5844 5843 5841 5839 5837 5835 5833 5831 5828 5826 5823 5821 5818 5815 5813 5809 5806 5802 5799